Nausori, Fiji

12:12 PM +12 on October 20, 2017 (GMT +1200)
Nausori International

Weather History for NFNA - January, 2003

Change the Weather History Date:

Tuesday, January 14, 2003

  Actual Average Record
Temperature  
Mean Temperature 80 °F -  
Max Temperature 82 °F 87 °F - ()
Min Temperature 77 °F 75 °F - ()
Cooling Degree Days 14    
Growing Degree Days 30 (Base 50)    
Moisture  
Dew Point 76 °F    
Average Humidity 88    
Maximum Humidity 94    
Minimum Humidity 70    
Precipitation  
Precipitation 0.00 in 0.40 in - ()
Sea Level Pressure  
Sea Level Pressure 29.43 in    
Wind  
Wind Speed 14 mph ()    
Max Wind Speed 23 mph    
Max Gust Speed 39 mph    
Visibility 9.6 miles    
Events Rain    
T = Trace of Precipitation, MM = Missing Value Source: Averaged Metar Reports

Daily Weather History Graph

Daily Weather History Graph

Search for Another Location

Airport or City:

Trip Planner

Search our weather history database for the weather conditions in past years. The results will help you decide how hot, cold, wet, or windy it might be!

Date:

Astronomy

Jan. 14, 2003 Rise Set
Actual Time 5:41 AM +12 6:47 PM +12
Civil Twilight 5:17 AM +12 7:11 PM +12
Nautical Twilight 4:49 AM +12 7:39 PM +12
Astronomical Twilight 4:20 AM +12 8:08 PM +12
Moon 3:02 PM +12 (1/14) 1:45 AM +12 (1/14)
Length of Visible Light 13h 54m
Length of Day
13h 06m
Waxing Gibbous, 80% of the Moon is Illuminated
Jan 14
Waxing Gibbous
Jan 18
Full
Jan 25
Last Quarter
Feb 1
New
Feb 9
First Quarter

Hourly Weather History & Observations

Time (+12) Temp. Heat Index Dew Point Humidity Pressure Visibility Wind Dir Wind Speed Gust Speed Precip Events Conditions
12:00 AM 80.6 °F 86.2 °F 75.2 °F 84% 2.92 in 12.4 mi East 17.3 mph - N/A Rain Light Rain Showers
1:00 AM 78.8 °F - 77.0 °F 94% 29.44 in 12.4 mi ESE 18.4 mph - N/A Rain Rain Showers
2:00 AM 78.8 °F - 77.0 °F 94% 29.42 in 3.7 mi SE 16.1 mph - N/A Rain Rain
3:00 AM 78.8 °F - 77.0 °F 94% 29.39 in 3.1 mi SE 17.3 mph - N/A Rain Light Rain
3:40 AM 78.8 °F - 77.0 °F 94% 29.36 in 2.5 mi SSE 20.7 mph 34.5 mph N/A Rain Light Rain
4:00 AM 78.8 °F - 77.0 °F 94% 2.92 in - North - - N/A Rain Rain
4:15 AM 78.8 °F - 77.0 °F 94% 2.92 in 12.4 mi SSE 13.8 mph - N/A Rain Light Rain Showers
5:00 AM 78.8 °F - 75.2 °F 89% 29.33 in 9.3 mi SSE 17.3 mph - N/A Rain Rain Showers
6:00 AM 77.0 °F - 75.2 °F 94% 29.30 in 6.2 mi SSE 20.7 mph - N/A Rain Light Rain
7:00 AM 77.0 °F - 75.2 °F 94% - 9.3 mi South 18.4 mph 39.1 mph N/A Rain Light Rain
8:00 AM 78.8 °F - 77.0 °F 94% 29.30 in 31.1 mi SSE 18.4 mph - N/A Rain Light Rain
9:00 AM 78.8 °F - 77.0 °F 94% 29.30 in 9.3 mi South 23.0 mph - N/A Rain Light Rain Showers
10:00 AM 78.8 °F - 77.0 °F 94% 29.33 in 18.6 mi SW 16.1 mph - N/A Rain Light Rain Showers
11:00 AM 80.6 °F 87.1 °F 77.0 °F 89% 29.36 in 24.9 mi SW 20.7 mph - N/A   Overcast
12:00 PM 78.8 °F - 77.0 °F 94% 29.39 in 15.5 mi SW 20.7 mph - N/A Rain Light Rain
1:00 PM 82.4 °F 90.9 °F 77.0 °F 84% 29.39 in 28.0 mi SW 19.6 mph - N/A   Overcast
2:00 PM 82.4 °F 90.9 °F 77.0 °F 84% 29.42 in 31.1 mi WSW 17.3 mph - N/A   Overcast
3:00 PM 82.4 °F 90.9 °F 77.0 °F 84% 29.42 in 31.1 mi SW 17.3 mph - N/A   Overcast
4:00 PM 82.4 °F 90.9 °F 77.0 °F 84% 29.44 in 31.1 mi SW 13.8 mph - N/A   Overcast
5:00 PM 80.6 °F 83.9 °F 69.8 °F 70% 29.47 in 31.1 mi WSW 11.5 mph - N/A   Overcast
6:00 PM 80.6 °F 83.9 °F 69.8 °F 70% 29.50 in 31.1 mi West 5.8 mph - N/A   Overcast
7:00 PM 80.6 °F 83.9 °F 69.8 °F 70% 29.56 in 31.1 mi Calm Calm - N/A   Mostly Cloudy
8:00 PM 80.6 °F 85.4 °F 73.4 °F 79% 29.59 in 24.9 mi Calm Calm - N/A   Mostly Cloudy
9:00 PM 80.6 °F 86.2 °F 75.2 °F 84% 29.62 in 24.9 mi Calm Calm - N/A   Mostly Cloudy
11:00 PM 80.6 °F 87.1 °F 77.0 °F 89% 29.62 in 24.9 mi Calm Calm - N/A   Mostly Cloudy